{"data":{"norad_id":39612,"epoch":"2026-09-20T00:32:21.630912Z","epoch_age_seconds":63144,"freshness":"FRESH","line1":"1 39612U 14010A   26263.02247258 -.00000110  00000+0  00000+0 0  9997","line2":"2 39612   0.4953  84.4209 0004970  80.5594 277.9957  1.00315789 45764","mean_motion":1.00315789,"eccentricity":0.000497,"inclination_deg":0.4953,"raan_deg":84.4209,"arg_perigee_deg":80.5594,"mean_anomaly_deg":277.9957,"bstar":0,"rev_number":4576,"period_min":1435.466953263,"perigee_km":35753.313809086,"apogee_km":35795.213295234,"semimajor_km":42152.40055216,"source":"CELESTRAK","updated_at":"2026-09-20T09:00:35.209640Z"}}